Location: Cortos
(40.7190°N, 4.5893°W)
Time: 09:55:52
(UTC+00:00)

Terra - Pass Details

Date: 05 July 2020
Orbit: 701 x 703 km, 98.2° (Epoch: 08 August)

Event Time Altitude Azimuth Distance (km) Brightness Sun altitude
Exits shadow 23:49:22 10° 259° (W) 2,147 4.3 -26.1°
Maximum altitude 23:50:20 11° 271° (W) 2,111 4.4 -26.2°
Drops below altitude 10° 23:51:33 10° 286° (WNW) 2,174 4.6 -26.2°
Sets 23:55:48 0° 323° (NW) 3,099 6.1 -26.3°
